[[{"header":{"parameterUnit":"m.s-1","parameterCategory":1,"la1":30.2991,"la2":30.254,"lo1":-89.0895,"lo2":-89.0444,"dy":0.0017,"dx":0.0017,"nx":28,"ny":28,"refTime":"2024-07-22T21:00:00:Z","depth":0,"parameterNumber":2,"parameterNumberName":"U-component_of_WINDS"},"data":[0,0,0,0,0,0,0,0,0,0,0,0,0,0,0,0,0,0,0,0,0,0,0,0,0,0,0,0,0,0,0,0,0,0,0,0,0,0,0,0,0,0,0,0,0,0,0,0,0,0,0,0,0,0,0,0,0,0,1.4808,1.4809,0,1.4826,1.4827,1.4827,1.4789,1.4788,1.4787,1.4786,1.4804,1.4806,1.4807,0,0,0,0,0,0,0,0,0,0,0,0,0,1.474,1.4742,1.4808,1.4809,1.4809,1.4826,1.4827,1.4827,1.479,1.4788,1.4787,1.4785,1.4804,1.4806,1.4808,0,0,0,0,0,0,0,0,0,0,0,0,0,1.4765,1.4742,1.4808,1.4792,1.4791,1.4826,1.4827,1.4827,1.479,1.4788,1.4786,1.4785,1.4803,1.4805,1.4808,1.4859,0,0,1.4815,1.4816,0,0,0,0,0,0,0,0,1.4764,1.4768,1.4795,1.4794,1.4792,1.4804,1.4809,1.4838,1.479,1.479,1.4786,1.4784,1.4806,1.4808,1.4815,1.486,1.4861,1.4815,1.4817,1.4818,1.4819,0,0,0,0,0,0,0,1.4762,1.4767,1.4815,1.4795,1.4794,1.4784,1.4785,1.4815,1.4808,1.479,1.4788,1.479,1.4805,1.4813,1.4815,1.4861,1.4815,1.4818,1.4819,1.482,1.4947,1.4949,0,0,0,0,0,0,1.4763,1.4766,1.4815,1.4816,1.4773,1.4787,1.4788,1.4802,1.4808,1.4807,1.4792,1.4788,1.4809,1.4812,1.4816,1.4875,1.4818,1.482,1.4822,1.4945,1.4948,1.495,0,0,0,0,0,0,1.4761,1.4767,1.4814,1.479,1.4795,1.479,1.4805,1.4803,1.4811,1.4809,1.4807,1.4801,1.4808,1.4812,1.4848,1.4875,1.4821,1.4824,1.4943,1.4946,1.4949,1.4994,0,0,0,0,0,0,1.476,1.4767,1.4787,1.4791,1.4797,1.4847,1.4807,1.4805,1.4816,1.4811,1.4817,1.4817,1.4807,1.4845,1.4851,1.4877,1.4825,1.494,1.4944,1.4948,1.499,1.4998,1.5005,0,0,0,0,0,1.4757,1.48,1.4788,1.4795,1.4822,1.4849,1.4852,1.484,1.4818,1.4838,1.4835,1.4816,1.4871,1.4849,1.4855,1.4883,1.4939,1.4943,1.4947,1.4987,1.4997,1.5005,0,0,0,0,0,0,1.48,1.48,1.4787,1.4833,1.4841,1.4842,1.4867,1.4851,1.4866,1.4861,1.4846,1.4848,1.4886,1.4888,1.4863,1.4932,1.4901,1.4907,1.4929,1.4938,1.4945,1.4944,1.4827,0,0,0,0,0,1.4815,1.4837,1.4836,1.4876,1.488,1.4873,1.4884,1.4874,1.4882,1.4885,1.4886,1.4894,1.4913,1.4926,1.4943,1.499,1.499,1.5012,1.502,1.5026,1.5031,1.5054,1.5063,1.4964,1.4964,1.4964,0,0,1.4846,1.4848,1.4863,1.4884,1.4889,1.4912,1.4876,1.4902,1.4918,1.4889,1.4923,1.4924,1.4932,1.4973,1.4991,1.4976,1.5058,1.5031,1.5036,1.5038,1.5059,1.5069,1.5077,1.4967,1.4966,1.4966,0,0,1.4912,1.4917,1.495,1.4955,1.4963,1.4958,1.4966,1.4969,1.4968,1.5002,1.498,1.4999,1.5032,1.5038,1.5046,1.5113,1.5095,1.5119,1.5157,1.518,1.5188,1.5195,1.5217,1.5225,1.5124,1.5124,1.5124,0,1.4949,1.4983,1.4969,1.4995,1.5004,1.4979,1.5011,1.5017,1.5031,1.5037,1.502,1.506,1.5063,1.5105,1.5121,1.5128,1.5136,1.5118,1.5188,1.5195,1.5201,1.5222,1.523,1.5127,1.5126,1.5126,1.5126,0,1.5027,1.505,1.5075,1.5088,1.51,1.5129,1.5119,1.5133,1.5122,1.5118,1.5151,1.5154,1.5171,1.518,1.517,1.522,1.521,1.519,1.5159,1.5213,1.5233,1.5241,1.5131,1.513,1.5129,1.5128,0,0,1.5122,1.5125,1.5134,1.5139,1.5145,1.5162,1.519,1.5206,1.5217,1.5227,1.5249,1.5277,1.5258,1.5267,1.5256,1.5277,1.5327,1.5254,1.5254,1.5267,1.538,1.5394,1.5403,1.5316,1.5317,1.5319,1.5379,0,1.5187,1.5234,1.5221,1.5268,1.5288,1.5263,1.5287,1.5293,1.529,1.5306,1.5302,1.5322,1.5297,1.5301,1.532,1.5317,1.535,1.5313,1.5335,1.5336,1.5333,1.5414,1.5429,1.5486,1.5387,1.5388,1.5389,0,1.5269,1.5281,1.5329,1.533,1.5338,1.5359,1.5371,1.5388,1.5393,1.5389,1.5398,1.5383,1.5409,1.5379,1.5414,1.5389,1.5397,1.5397,1.5399,1.54,1.5365,1.5415,1.5504,1.5512,1.5401,1.54,1.5399,0,1.5332,1.536,1.5391,1.5396,1.5398,1.5414,1.5415,1.5419,1.5428,1.5439,1.5445,1.5459,1.5467,1.5477,1.5466,1.5445,1.5503,1.5471,1.5499,1.5499,1.5512,1.5511,1.5601,1.5519,1.5519,1.5519,1.5519,0,1.5405,1.5435,1.5419,1.5439,1.5471,1.5456,1.5489,1.5487,1.5491,1.5509,1.5489,1.5506,1.5491,1.5507,1.5499,1.5528,1.5532,1.5529,1.5526,1.553,1.5531,1.5535,1.553,1.5521,1.5521,1.5521,1.552,0,1.548,1.5471,1.5504,1.5502,1.5502,1.5526,1.5525,1.5542,1.5537,1.556,1.5565,1.5557,1.5574,1.5564,1.5583,1.5577,1.5615,1.5608,1.5613,1.561,1.5638,1.5635,1.5733,1.5745,1.5657,1.5658,1.5659,0,1.5527,1.5549,1.555,1.556,1.5562,1.558,1.5589,1.5575,1.5585,1.5592,1.5608,1.5624,1.5636,1.5665,1.566,1.5674,1.5666,1.5699,1.5668,1.567,1.5665,1.5663,1.5664,1.5705,1.5706,1.5707,1.5708,0,1.5611,1.5604,1.5618,1.563,1.5641,1.565,1.5657,1.5666,1.5652,1.5664,1.5682,1.5691,1.5708,1.5724,1.5735,1.5736,1.5719,1.5718,1.5725,1.5729,1.573,1.5728,1.5629,1.5716,1.5715,1.5714,1.5714,1.5714,1.5672,1.569,1.5692,1.5708,1.5711,1.5717,1.5733,1.5729,1.5743,1.5756,1.5747,1.5767,1.577,1.5783,1.5786,1.5801,1.5788,1.5798,1.5801,1.5803,1.5806,1.5728,1.5804,1.5803,1.5803,1.5803,1.5803,0,1.5753,1.5753,1.5767,1.5777,1.5788,1.5771,1.5777,1.5788,1.5806,1.581,1.5821,1.584,1.5855,1.5851,1.5864,1.5876,1.5869,1.588,1.5878,1.5879,1.5818,1.581,1.5886,1.5886,1.5886,1.5886,1.5886,1.5886,1.5797,1.5825,1.5819,1.5848,1.5848,1.5866,1.5871,1.5877,1.588,1.5901,1.5913,1.591,1.5911,1.5923,1.5935,1.5933,1.5938,1.5952,1.5948,1.5891,1.5883,1.5875,1.5868,1.5954,1.5954,1.6006,1.6007,1.6007]},{"header":{"parameterUnit":"m.s-1","parameterCategory":1,"la1":30.2991,"la2":30.254,"lo1":-89.0895,"lo2":-89.0444,"dy":0.0017,"dx":0.0017,"nx":28,"ny":28,"refTime":"2024-07-22T21:00:00:Z","depth":0,"parameterNumber":3,"parameterNumberName":"V-component_of_WINDS"},"data":[0,0,0,0,0,0,0,0,0,0,0,0,0,0,0,0,0,0,0,0,0,0,0,0,0,0,0,0,0,0,0,0,0,0,0,0,0,0,0,0,0,0,0,0,0,0,0,0,0,0,0,0,0,0,0,0,0,0,-0.2169,-0.2167,0,-0.2048,-0.2046,-0.2045,-0.2015,-0.2016,-0.2017,-0.2018,-0.1889,-0.1885,-0.1881,0,0,0,0,0,0,0,0,0,0,0,0,0,-0.2371,-0.2367,-0.2169,-0.2167,-0.2166,-0.2048,-0.2046,-0.2045,-0.2015,-0.2016,-0.2017,-0.2018,-0.189,-0.1885,-0.188,0,0,0,0,0,0,0,0,0,0,0,0,0,-0.227,-0.2366,-0.2169,-0.2137,-0.2133,-0.2048,-0.2046,-0.2044,-0.2015,-0.2016,-0.2017,-0.2018,-0.1892,-0.1886,-0.188,-0.1817,0,0,-0.1861,-0.1858,0,0,0,0,0,0,0,0,-0.2276,-0.2262,-0.2143,-0.2139,-0.2134,-0.2048,-0.207,-0.1968,-0.2015,-0.2059,-0.2018,-0.2019,-0.1941,-0.193,-0.1905,-0.1811,-0.1806,-0.186,-0.1856,-0.1854,-0.1852,0,0,0,0,0,0,0,-0.2283,-0.2267,-0.2121,-0.2141,-0.2136,-0.2127,-0.2114,-0.2051,-0.1995,-0.2056,-0.2053,-0.204,-0.1938,-0.1911,-0.1902,-0.1804,-0.186,-0.1855,-0.1851,-0.1848,-0.1653,-0.1652,0,0,0,0,0,0,-0.2296,-0.2273,-0.2124,-0.2117,-0.2209,-0.2123,-0.2108,-0.2074,-0.1995,-0.1984,-0.2039,-0.2039,-0.1921,-0.1909,-0.1897,-0.1819,-0.1854,-0.1848,-0.1844,-0.1655,-0.1653,-0.1651,0,0,0,0,0,0,-0.23,-0.2283,-0.2129,-0.2195,-0.2174,-0.2118,-0.208,-0.2071,-0.2044,-0.1982,-0.1972,-0.2021,-0.1922,-0.1906,-0.1838,-0.1814,-0.1845,-0.1839,-0.1656,-0.1654,-0.1652,-0.1662,0,0,0,0,0,0,-0.2306,-0.2284,-0.2261,-0.2194,-0.2171,-0.2073,-0.2079,-0.2068,-0.2034,-0.2033,-0.1963,-0.1953,-0.1921,-0.1847,-0.1832,-0.1806,-0.1834,-0.1658,-0.1655,-0.1653,-0.1663,-0.166,-0.1657,0,0,0,0,0,-0.2313,-0.2267,-0.226,-0.2242,-0.214,-0.2072,-0.2058,-0.2024,-0.2032,-0.2007,-0.1968,-0.1955,-0.182,-0.1841,-0.1823,-0.1795,-0.1659,-0.1656,-0.1653,-0.1664,-0.1661,-0.1658,0,0,0,0,0,0,-0.2329,-0.2257,-0.2248,-0.2179,-0.2132,-0.2067,-0.2034,-0.2021,-0.1969,-0.197,-0.1929,-0.1913,-0.1848,-0.1814,-0.1839,-0.173,-0.1739,-0.1733,-0.1754,-0.175,-0.1747,-0.1756,-0.1829,0,0,0,0,0,-0.2325,-0.2277,-0.2216,-0.2161,-0.2138,-0.2091,-0.2059,-0.2037,-0.1986,-0.1965,-0.1921,-0.1871,-0.1817,-0.1782,-0.1729,-0.1659,-0.1643,-0.1631,-0.1628,-0.1626,-0.162,-0.1581,-0.1575,-0.1641,-0.1641,-0.1641,0,0,-0.2315,-0.227,-0.2242,-0.2163,-0.2124,-0.2074,-0.2074,-0.202,-0.1982,-0.1957,-0.189,-0.1856,-0.1797,-0.1728,-0.1696,-0.1698,-0.1599,-0.1622,-0.1621,-0.1616,-0.1577,-0.1571,-0.1566,-0.1639,-0.1639,-0.1639,0,0,-0.2272,-0.2233,-0.2183,-0.2145,-0.2086,-0.2055,-0.2044,-0.1981,-0.1958,-0.1891,-0.1871,-0.1825,-0.1733,-0.1692,-0.1659,-0.1603,-0.1589,-0.1587,-0.1571,-0.1534,-0.1529,-0.1524,-0.1504,-0.1497,-0.1582,-0.1582,-0.1582,0,-0.2266,-0.2191,-0.2159,-0.2107,-0.2073,-0.205,-0.1999,-0.1963,-0.1889,-0.1866,-0.1871,-0.1756,-0.1714,-0.1636,-0.1623,-0.1597,-0.1582,-0.1594,-0.1533,-0.1527,-0.1522,-0.1502,-0.1495,-0.1582,-0.1582,-0.1582,-0.1582,0,-0.2187,-0.2136,-0.2102,-0.2034,-0.1997,-0.1945,-0.1905,-0.187,-0.1853,-0.1821,-0.1754,-0.1704,-0.1641,-0.1621,-0.1602,-0.154,-0.1543,-0.1541,-0.1549,-0.1517,-0.1497,-0.1489,-0.1582,-0.1582,-0.1582,-0.1582,0,0,-0.2147,-0.2065,-0.2053,-0.2022,-0.1958,-0.1916,-0.1865,-0.1805,-0.1776,-0.1727,-0.1682,-0.1606,-0.1604,-0.1567,-0.1543,-0.1511,-0.147,-0.1512,-0.151,-0.1506,-0.1398,-0.14,-0.1392,-0.1461,-0.146,-0.1458,-0.1403,0,-0.2095,-0.2003,-0.1974,-0.1896,-0.1848,-0.1827,-0.1782,-0.1737,-0.1707,-0.1661,-0.1627,-0.1574,-0.1575,-0.1553,-0.152,-0.1482,-0.1447,-0.1485,-0.1417,-0.1415,-0.1432,-0.1382,-0.1382,-0.1333,-0.1395,-0.1394,-0.1393,0,-0.2021,-0.1974,-0.1892,-0.1835,-0.1814,-0.1774,-0.1718,-0.1674,-0.1623,-0.1603,-0.1564,-0.1543,-0.1488,-0.1501,-0.1423,-0.145,-0.142,-0.1398,-0.1395,-0.1386,-0.1401,-0.1371,-0.1316,-0.1308,-0.1381,-0.1382,-0.1383,0,-0.2,-0.1916,-0.1856,-0.1831,-0.1763,-0.1735,-0.1705,-0.1655,-0.1622,-0.1573,-0.155,-0.1495,-0.1464,-0.1421,-0.1386,-0.1399,-0.1311,-0.1321,-0.1293,-0.1293,-0.1274,-0.1275,-0.1213,-0.1257,-0.1257,-0.1257,-0.1257,0,-0.1945,-0.1895,-0.1846,-0.1809,-0.1754,-0.1721,-0.1666,-0.1635,-0.1591,-0.1548,-0.1526,-0.1485,-0.1442,-0.1395,-0.1368,-0.1308,-0.1294,-0.1276,-0.1269,-0.1277,-0.128,-0.1256,-0.1259,-0.1255,-0.1255,-0.1256,-0.1256,0,-0.1911,-0.1876,-0.181,-0.1752,-0.1737,-0.1698,-0.1648,-0.1611,-0.1582,-0.1527,-0.1512,-0.1464,-0.1408,-0.137,-0.1298,-0.1279,-0.1214,-0.1208,-0.1232,-0.1228,-0.1202,-0.1205,-0.1121,-0.1109,-0.1162,-0.1162,-0.1161,0,-0.1877,-0.1839,-0.1778,-0.1748,-0.1719,-0.1671,-0.1638,-0.1604,-0.157,-0.151,-0.148,-0.1424,-0.1376,-0.1288,-0.1246,-0.1191,-0.1183,-0.1158,-0.1175,-0.1185,-0.1182,-0.1185,-0.118,-0.1155,-0.1155,-0.1154,-0.1154,0,-0.182,-0.1806,-0.1759,-0.1707,-0.1669,-0.1625,-0.1582,-0.1558,-0.1517,-0.148,-0.1424,-0.1387,-0.1315,-0.1259,-0.1201,-0.1168,-0.1154,-0.115,-0.114,-0.1147,-0.1163,-0.1154,-0.1224,-0.1151,-0.1151,-0.1152,-0.1152,-0.1152,-0.1785,-0.1751,-0.1703,-0.1652,-0.1617,-0.1577,-0.1541,-0.1507,-0.1461,-0.1401,-0.1383,-0.1325,-0.1276,-0.1196,-0.1164,-0.1117,-0.1119,-0.1105,-0.1101,-0.1098,-0.1098,-0.1172,-0.1106,-0.1106,-0.1106,-0.1106,-0.1106,0,-0.1727,-0.1696,-0.165,-0.1591,-0.1551,-0.1544,-0.1496,-0.1463,-0.1413,-0.1369,-0.1324,-0.126,-0.1206,-0.1161,-0.1105,-0.1076,-0.1068,-0.1063,-0.1064,-0.1056,-0.1099,-0.1113,-0.107,-0.107,-0.107,-0.107,-0.107,-0.107,-0.1692,-0.1634,-0.1614,-0.1539,-0.1507,-0.1452,-0.1425,-0.1388,-0.1353,-0.1284,-0.124,-0.1212,-0.1167,-0.1108,-0.1058,-0.1047,-0.1027,-0.1022,-0.1009,-0.1049,-0.1053,-0.1057,-0.107,-0.1019,-0.1018,-0.097,-0.0969,-0.0969]}]]